Weather in Khiv

Russia / Republic of Dagestan     41°45′13″N   47°55′39″E
temp.,
°C
wind,
m/s
gust,
m/s
humid.,
%
clouds,
%
prec.,
mm/h
press.,
hPa
HPBL,
m
18 may, wed
wed1800:00+8w2280100 0.0 101615
03:00+8w327213 0.0 101716
06:00+10nne127229 0.0 1017152
09:00+12e327576 0.1 1018866
12:00+12ese227595 0.2 1016802
15:00+12ese337999 0.3 1015675
18:00+12se238019 0.0 1013364
21:00+9w22810 0.0 101412
19 may, thu
thu1900:00+10w33610 0.0 101320
03:00+10w33530 0.0 101219
06:00+14w32560 0.0 101232
09:00+19ene21450 0.0 1012539
12:00+20ene32470 0.0 10121005
15:00+19e42556 0.0 10121162
18:00+16e227626 0.0 1013142
21:00+12w2287100 0.0 101411
20 may, fri
fri2000:00+12ene1188100 0.0 101413
03:00+10ssw1192100 0.3 101313
06:00+9ese3399100 0.0 1016344
09:00+6e2297100 0.8 1019279
12:00+6sse239195 0.1 1020411
15:00+7se1184100 0.5 1019449
18:00+6nw1294100 4.4 1020206
21:00+6sw3295100 7.8 1021130
21 may, sat
sat2100:00+5sw3390100 2.9 102178
03:00+6wsw2281100 3.1 101930
06:00+8ssw127249 0.0 1020112
09:00+11se336280 0.1 10181257
12:00+12se4563100 0.3 10171270
15:00+11ese3470100 0.4 10161077
18:00+10se23751 0.0 1015410
21:00+7w43710 0.0 101428
22 may, sun
sun2200:00+7w435045 0.0 101131
03:00+8w3345100 0.0 101130
06:00+11wsw22575 0.0 101248
09:00+15e32490 0.0 10111052
12:00+14e446656 0.0 1012950
15:00+12e457999 0.1 1012754
18:00+11ese238489 0.0 1010350
21:00+7wnw019116 0.0 100910